Flag for U.S.A. Weather past 2 weeks in Portland, Maine, U.S.A.

Now
56 °F

Light rain. Partly sunny.


Feels Like: 51 °F
Forecast: 45 / 54 °F
Wind: 21 mph from North

Location: Portland - Portland International Jetport

Current Time: Apr 27, 2015 at 7:06:24 PM

Latest Report: Apr 27, 2015 at 5:51 PM


Visibility: 10 mi

Pressure: 29.54 "Hg

Humidity: 55%

Dew point: 40 °F

Location of PortlandLocation

Historic Weather in Portland — Graph

°F

Portland temperature yesterday

Maximum temperature yesterday: 55 °F (at 10:51 AM)
Minimum temperature yesterday: 40 °F (at 4:51 AM)
Average temperature yesterday: 48 °F

Past Weeks' High & Low Weather Summary

 TemperatureHumidityPressure
High69 °F (Apr 14, 1:51 PM)96% (Apr 21, 10:51 AM)30.48 "Hg (Apr 21, 10:51 AM)
Low32 °F (Apr 16, 4:51 AM)15% (Apr 15, 2:51 PM)29.43 "Hg (Apr 23, 2:51 AM)
Average49 °F60%29.91 "Hg
* Reported Apr 12 4:51 PM — Apr 27 4:51 PM, Portland, Weather by CustomWeather, © 2015

Note: Actual official high and low records may vary slightly from our data, if they occured in-between our weather recording intervals... More about our weather records

Advertising

Portland weather history for previous 24 hours

 ConditionsComfort  
Time TempWeatherWind HumidityBarometerVisibility
4:51 PM
Mon, Apr 27
55 °FMore clouds than sun.17 mph57%29.53 "Hg10 mi
3:51 PM55 °FCloudy.12 mph59%29.53 "Hg10 mi
2:51 PM52 °FLight rain. Cloudy.15 mph75%29.54 "Hg10 mi
1:51 PM55 °FLight rain. Mostly cloudy.18 mph53%29.53 "Hg10 mi
12:51 PM55 °FMostly cloudy.18 mph47%29.53 "Hg10 mi
11:51 AM55 °FOvercast.17 mph47%29.54 "Hg10 mi
10:51 AM55 °FMostly cloudy.14 mph47%29.55 "Hg10 mi
9:51 AM53 °FMore clouds than sun.13 mph51%29.57 "Hg10 mi
8:51 AM52 °FBroken clouds.12 mph55%29.57 "Hg10 mi
7:51 AM48 °FPartly sunny.13 mph63%29.58 "Hg10 mi
6:51 AM46 °FBroken clouds.5 mph73%29.59 "Hg10 mi
5:51 AM43 °FPartly cloudy.5 mph76%29.59 "Hg10 mi
4:51 AM44 °FPartly cloudy.5 mph73%29.58 "Hg10 mi
3:51 AM47 °FMostly cloudy.6 mph69%29.58 "Hg10 mi
2:51 AM48 °FOvercast.7 mph63%29.58 "Hg10 mi
1:51 AM48 °FMostly cloudy.8 mph63%29.58 "Hg10 mi
12:51 AM49 °FOvercast.5 mph61%29.59 "Hg10 mi
11:51 PM
Sun, Apr 26
49 °FOvercast.7 mph59%29.59 "Hg10 mi
10:51 PM49 °FOvercast.8 mph57%29.60 "Hg10 mi
9:51 PM49 °FOvercast.6 mph57%29.62 "Hg10 mi
8:51 PM49 °FOvercast.No wind69%29.62 "Hg10 mi
7:51 PM51 °FMore clouds than sun.5 mph61%29.61 "Hg10 mi
Weather by CustomWeather, © 2015

See weather overviewHow to use our weather pages